格洛纳斯-762 COSMOS 2294 [GLONASS]

导读 | 豆包AI

COSMOS 2294(GLONASS)是独联体(CIS)继承自苏联、于1994年11月20日发射的第一代格洛纳斯导航卫星,属于俄罗斯GLONASS全球卫星导航系统组网卫星。GLONASS系统是全球第二个投入运行的卫星导航系统,该卫星运行于约19100公里高度的中圆轨道,轨道倾角64.8°,运行周期11小时15分,采用三轴稳定体制,为全球提供全天候导航定位服务。

基本信息
目录编号:
23398
目录名称:
COSMOS 2294 (GLONASS)
国际标识:
1994-076C
轨道中心:
EARTH
卫星名称:
格洛纳斯-762
卫星全名:
格洛纳斯-762 COSMOS 2294 [GLONASS]
卫星状态:
在轨 (已飞行11484 天)
发射日期:
1994-11-20 UTC
国别 :
俄罗斯(独联体) (CIS)
星等 :
--
轨道信息
数据来源 国际轨道数据 AOE轨道数据
星历时间 2026-04-25T14:38:06+0800
5天前
查看轨道信息
2026-04-24T04:00:00+0800
6天前
查看轨道信息
半长轴 25508.049km 25508.057km
偏心率 0.0005175 0.0005151
轨道倾角 64.806° 64.805°
近地点辐角 24.568° 24.938°
升交点赤经 70.630° 70.680°
平近点角 152.928° 125.447°
近地点 19116.711km 19116.78km
远地点 19143.113km 19143.06km
周期 675.734分钟 675.734分钟
每日圈数 2.131017 2.131016
详细信息
平衡模式:
三轴稳定
覆盖范围:
全球
运营商:
列舍特涅夫卫星信息系统
运营商所在国:
俄罗斯
制造商(研发单位):
列舍特涅夫卫星信息系统
制造商所在国:
俄罗斯
使用方式:
暂无
卫星简介
格洛纳斯(GLONASS )是苏联/俄罗斯研制卫星导航系统。标准配置为24颗卫星,其中18颗卫星就能保证该系统为俄罗斯境内用户提供全部服务。该卫星已退役。
2D轨道图
3D轨道图
轨道高度分析图
轨道倾角分析图
轨道综合分析图
查看轨道综合分析图